BREEZE-M DEB (TANK), 55843

Orbit data source: Space-Track

BREEZE-M DEB (TANK), 55843 is space debris in HEO originally from a launch on Sun, 12 Mar 2023 UTC launched from the Tyuratam Missile And Space Complex (TTMTR). Debris objects in space refer to the collection of defunct objects orbiting the Earth. Examples of debris include non-operational satellites, rocket bodies, and fragments generated from explosions, collisions, or faulty payload assembly.

Loading next visibility...
Identifier
55843, 2023-031C
Orbit
HEO
Last TLE update
3 months ago
Origin
Manufacturer
Khrunichev
Mission
Spacecraft
Bus & Motor
BRIZ TANK, Unknown motor
Mass
~1,000 kg wet, 1,000 kg dry
Launch date (UTC)
2023-03-12 (2 years ago)
Launch vehicle
Unknown
Launch site
Tyuratam Missile And Space Complex (TTMTR)
Object type
Payload
Rocket body
Debris
Shape & HBR
Torus, 4 m
Radar Cross Section
8.218 m², Large (>1 m²)

Expand to show TLE details & history

TLE from 3 months ago
0 BREEZE-M DEB (TANK)
1 55843U 23031C   25027.80585425  .00154530  10556-5  22861-2 0  9998
2 55843  48.9764 322.4494 6790191 182.0308 172.4563  2.98502943 16757
Epoch: 2025-01-27T19:20Z
Definitive object data (Epoch: 2025-01-27T19:20:25.807Z)
Latitude
0.00002°
Longitude
-94.98193°
Altitude
27,800.037 km
Speed
1.94 km/s
True Right ascension
21h 29m 47s
True Declination
0° 00' 00"
Sunlit
Object was in daylight at TLE epoch
Visualization TLE readout
Latitude
23.84091°
Longitude
-114.11101°
Altitude
24,803.705 km
Speed
2.133 km/s
Apparent Right ascension
20h 52m 38s
Apparent Declination
17° 07' 39"
Sunlit
Object is in daylight
Visualization observer readout
Local Sidereal Time
15:14:30
Azimuth
80.017° E
Elevation
15°
Doppler factor
1
Orbital elements
Apogee altitude
27,833.645 km
Perigee altitude
162.187 km
Semi-major axis
20,376.053 km
Eccentricity
0.6790191
Inclination
48.9764°
RAAN
322.4494°
Arg. of periapsis
182.0308°
True anomaly
178.03392°
Mean anomaly
172.4563°
Eccentric anomaly
175.50522°
Mean motion
0.74621 °/min
BSTAR
0.0022861
Orbital period
482.44 mins
Loading maneuver chart data...
Loading SW <> Apogee altitude chart data...
Loading historical data...
Loading historical data...
Loading historical data...
Loading historical data...
Loading historical data...
Loading historical data...
Loading historical data...
Other satellites on launch #31 in the year 2023 (2023-03-12 UTC)

BREEZE-M DEB (TANK) Visibility forecast

Observer location: undefined°, undefined°

Span
Click to sort rows by Start time (UTC) header in descending order
Start Az.
Max El. time (UTC)
Max El. Az.
Max El.
End time (UTC)
End Az.
168 mins2025-05-09 07:05:34.308Z80.039° E2025-05-09 08:41:34.308Z66.752° ENE22.152°2025-05-09 09:53:34.308Z49.433° ENE
357 mins2025-05-09 12:02:34.308Z217.838° SW2025-05-09 17:34:34.308Z10.44° NNE44.246°2025-05-09 17:59:34.308Z97.705° ESE
|